Weather History for Savannah Hunter, GA

Change the Weather History Date:

Friday, February 8, 2013

  Actual Average Record
Temperature  
Mean Temperature 56 °F -  
Max Temperature 64 °F 62 °F 80 °F (1999)
Min Temperature 48 °F 40 °F 32 °F (2004)
Degree Days  
Heating Degree Days 9    
Growing Degree Days 6 (Base 50)    
Moisture  
Dew Point 49 °F    
Average Humidity 84    
Maximum Humidity 95    
Minimum Humidity 59    
Precipitation  
Precipitation 0.00 in - - ()
Sea Level Pressure  
Sea Level Pressure 29.92 in    
Wind  
Wind Speed 8 mph (West)    
Max Wind Speed 14 mph    
Max Gust Speed 17 mph    
Visibility 10 miles    
Events      
Averages and records for this station are not official NWS values.
T = Trace of Precipitation, MM = Missing Value Source: NWS Daily Summary

Daily Weather History Graph

Daily Weather History Graph

Search for Another Location

Airport:

Trip Planner

Search our weather history database for the weather conditions in past years. The results will help you decide how hot, cold, wet, or windy it might be!

Date:

Astronomy

Feb. 08, 2013 Rise Set
Actual Time 7:12 AM EST 6:05 PM EST
Civil Twilight 6:47 AM EST 6:30 PM EST
Nautical Twilight 6:18 AM EST 6:59 PM EST
Astronomical Twilight 5:50 AM EST 7:27 PM EST
Moon 5:37 AM EST (2/8) 4:38 PM EST (2/8)
Length of Visible Light 11h 42m
Length of Day
10h 52m
Waning Crescent, 3% of the Moon is Illuminated
Feb 8
Waning Crescent
Feb 10
New
Feb 17
First Quarter
Feb 25
Full
Mar 4
Last Quarter

Hourly Weather History & Observations

Time (EST) Temp. Dew Point Humidity Pressure Visibility Wind Dir Wind Speed Gust Speed Precip Events Conditions
12:10 AM 55.4 °F 53.6 °F 94% 29.79 in 10.0 mi WNW 8.1 mph - N/A   Overcast
12:13 AM 55.4 °F 53.6 °F 94% 29.79 in 10.0 mi WNW 9.2 mph - N/A   Overcast
12:29 AM 53.6 °F 51.8 °F 94% 29.80 in 9.0 mi WNW 8.1 mph - N/A   Overcast
12:38 AM 53.6 °F 51.8 °F 94% 29.81 in 8.0 mi WNW 8.1 mph - N/A   Overcast
12:39 AM 53.6 °F 51.8 °F 94% 29.80 in 8.0 mi WNW 8.1 mph - N/A   Overcast
12:55 AM 53.1 °F 51.6 °F 95% 29.81 in 10.0 mi WNW 8.1 mph - N/A   Overcast
12:57 AM 53.6 °F 51.8 °F 94% 29.81 in 10.0 mi WNW 8.1 mph - N/A   Overcast
1:17 AM 51.8 °F 50.0 °F 94% 29.82 in 10.0 mi WNW 6.9 mph 17.3 mph N/A   Overcast
1:55 AM 51.6 °F 50.0 °F 94% 29.83 in 10.0 mi West 11.5 mph - N/A   Overcast
2:18 AM 51.8 °F 50.0 °F 94% 29.84 in 10.0 mi WNW 9.2 mph - N/A   Overcast
2:55 AM 50.7 °F 48.2 °F 91% 29.84 in 10.0 mi WNW 9.2 mph - N/A   Overcast
3:20 AM 50.0 °F 48.2 °F 94% 29.84 in 10.0 mi WNW 8.1 mph - N/A   Overcast
3:55 AM 50.2 °F 47.1 °F 89% 29.85 in 10.0 mi NW 9.2 mph - N/A   Overcast
4:18 AM 50.0 °F 46.4 °F 87% 29.86 in 10.0 mi WNW 6.9 mph - N/A   Overcast
4:55 AM 49.1 °F 46.6 °F 91% 29.87 in 10.0 mi WNW 6.9 mph - N/A   Overcast
5:55 AM 48.6 °F 45.9 °F 90% 29.90 in 10.0 mi NW 6.9 mph - N/A   Overcast
6:55 AM 48.6 °F 45.9 °F 90% 29.93 in 10.0 mi West 4.6 mph - N/A   Overcast
7:19 AM 48.2 °F 46.4 °F 93% 29.94 in 10.0 mi WNW 5.8 mph - N/A   Overcast
7:55 AM 48.2 °F 45.7 °F 91% 29.96 in 10.0 mi Variable 4.6 mph - N/A   Overcast
8:38 AM 48.2 °F 46.4 °F 93% 29.97 in 10.0 mi West 5.8 mph - N/A   Overcast
8:55 AM 48.9 °F 45.9 °F 89% 29.98 in 10.0 mi WNW 5.8 mph - N/A   Overcast
9:03 AM 50.0 °F 46.4 °F 87% 29.98 in 10.0 mi WNW 6.9 mph - N/A   Overcast
9:27 AM 50.0 °F 46.4 °F 87% 29.99 in 10.0 mi West 6.9 mph - N/A   Overcast
9:55 AM 50.5 °F 46.6 °F 86% 29.99 in 10.0 mi West 8.1 mph - N/A   Overcast
10:21 AM 51.8 °F 46.4 °F 82% 29.99 in 10.0 mi West 8.1 mph - N/A   Overcast
10:55 AM 52.9 °F 46.9 °F 80% 29.99 in 10.0 mi West 10.4 mph - N/A   Overcast
11:37 AM 55.4 °F 48.2 °F 77% 29.98 in 10.0 mi West 13.8 mph 17.3 mph N/A   Overcast
11:55 AM 56.5 °F 48.0 °F 73% 29.98 in 10.0 mi West 6.9 mph - N/A   Overcast
12:55 PM 57.0 °F 48.0 °F 72% 29.97 in 10.0 mi Variable 6.9 mph - N/A   Overcast
1:54 PM 60.8 °F 50.0 °F 68% 29.96 in 10.0 mi West 6.9 mph - N/A   Scattered Clouds
1:55 PM 60.6 °F 49.5 °F 67% 29.96 in 10.0 mi West 8.1 mph - N/A   Scattered Clouds
2:55 PM 63.3 °F 50.0 °F 62% 29.95 in 10.0 mi West 8.1 mph - N/A   Partly Cloudy
3:55 PM 63.7 °F 50.2 °F 61% 29.95 in 10.0 mi WSW 12.7 mph - N/A   Scattered Clouds
3:56 PM 64.4 °F 50.0 °F 59% 29.95 in 10.0 mi WSW 12.7 mph - N/A   Mostly Cloudy
4:09 PM 64.4 °F 50.0 °F 59% 29.95 in 10.0 mi West 12.7 mph - N/A   Scattered Clouds
4:55 PM 63.0 °F 50.2 °F 63% 29.95 in 10.0 mi West 9.2 mph - N/A   Clear
5:55 PM 60.4 °F 50.2 °F 69% 29.96 in 10.0 mi WNW 4.6 mph - N/A   Clear
6:55 PM 56.1 °F 49.8 °F 79% 29.99 in 10.0 mi SW 3.5 mph - N/A   Clear
7:55 PM 56.7 °F 51.3 °F 82% 30.01 in 10.0 mi West 4.6 mph - N/A   Scattered Clouds
8:55 PM 54.7 °F 51.1 °F 88% 30.04 in 10.0 mi WSW 3.5 mph - N/A   Mostly Cloudy
9:55 PM 56.1 °F 52.0 °F 86% 30.05 in 10.0 mi WSW 4.6 mph - N/A   Overcast
10:55 PM 52.9 °F 49.5 °F 88% 30.06 in 10.0 mi West 3.5 mph - N/A   Scattered Clouds
11:55 PM 55.0 °F 50.0 °F 83% 30.07 in 10.0 mi WNW 3.5 mph - N/A   Clear